Location: Poughquag
(41.6090°N, 73.6820°W)
Time: 02:41:12
(UTC-05:00)

XW-2C - Visible Passes

Search period start: 09 December 2023 00:00
Search period end: 19 December 2023 00:00
Orbit: 463 x 474 km, 97.5° (Epoch: 09 December)

Date Brightness Start Highest point End Pass type
(mag) Time Alt. Az. Time Alt. Az. Time Alt. Az.
09 Dec ? 05:28:54 10° ENE 05:30:22 12° E 05:31:50 10° ESE visible
09 Dec ? 17:33:42 10° SSE 17:37:12 73° ENE 17:40:44 10° N visible
10 Dec ? 06:31:01 10° NNE 06:34:34 83° ESE 06:38:04 10° S visible
10 Dec ? 17:05:02 10° SE 17:08:07 29° ENE 17:11:14 10° N visible
10 Dec ? 18:39:05 10° SW 18:41:18 16° W 18:43:31 10° NW visible
11 Dec ? 06:02:07 10° NNE 06:05:19 32° E 06:08:29 10° SSE visible
11 Dec ? 18:08:40 10° SSW 18:11:56 36° W 18:15:14 10° NNW visible
12 Dec ? 05:33:59 10° ENE 05:35:55 14° E 05:37:51 10° SE visible
12 Dec ? 17:39:09 10° SSE 17:42:40 86° ENE 17:46:14 10° NNW visible
13 Dec ? 06:36:28 10° N 06:40:00 83° WNW 06:43:30 10° SSW visible
13 Dec ? 17:10:18 10° SE 17:13:30 34° ENE 17:16:44 10° N visible
13 Dec ? 18:44:54 10° SW 18:46:44 14° W 18:48:36 10° WNW visible
14 Dec ? 06:07:24 10° NNE 06:10:43 37° E 06:13:59 10° SSE visible
14 Dec ? 18:14:08 10° SSW 18:17:17 31° W 18:20:29 10° NNW visible
15 Dec ? 05:39:01 10° NE 05:41:16 16° E 05:43:31 10° SE visible
15 Dec ? 17:44:26 10° S 17:47:57 80° WSW 17:51:30 10° NNW visible
16 Dec ? 06:41:44 10° N 06:45:14 71° WNW 06:48:43 10° SSW visible
16 Dec ? 17:15:24 10° SE 17:18:42 39° ENE 17:22:02 10° N visible
16 Dec ? 18:50:37 10° WSW 18:52:00 12° W 18:53:23 10° WNW visible
17 Dec ? 06:12:31 10° NNE 06:15:54 43° E 06:19:14 10° S visible
17 Dec ? 18:19:25 10° SSW 18:22:28 27° W 18:25:32 10° NW visible
18 Dec ? 05:43:54 10° NE 05:46:25 18° E 05:48:55 10° SE visible
18 Dec ? 17:49:32 10° S 17:53:02 69° W 17:56:34 10° NNW visible
